| time (UTC) | temp F | wind direction | speed knots | gust knots | rain 1hr in | rain 24hr in | rain mn in | humidity % | barometer mb |
| 20260503045940 | 35 | 76 | 0.0 | 0.9 | 0.00 | 0.00 | 0.00 | 67 | 1016.3 |
| 20260503045439 | 35 | 69 | 0.0 | 0.9 | 0.00 | 0.00 | 0.00 | 67 | 1016.2 |
| 20260503044940 | 35 | 91 | 0.9 | 0.9 | 0.00 | 0.00 | 0.00 | 67 | 1016.4 |
| 20260503044439 | 36 | 103 | 0.0 | 0.9 | 0.00 | 0.00 | 0.00 | 66 | 1016.3 |
| 20260503043940 | 36 | 86 | 0.0 | 1.7 | 0.00 | 0.00 | 0.00 | 66 | 1016.4 |
| 20260503043710 | 36 | 73 | 0.0 | 1.7 | 0.00 | 0.00 | 0.00 | 66 | 1016.2 |
| 20260503043200 | 36 | 82 | 0.9 | 1.7 | 0.00 | 0.00 | 0.00 | 66 | 1016.3 |
| 20260503042437 | 36 | 77 | 0.9 | 1.7 | 0.00 | 0.00 | 0.00 | 66 | 1016.4 |
| 20260503041938 | 36 | 88 | 0.9 | 1.7 | 0.00 | 0.00 | 0.00 | 65 | 1016.3 |
| 20260503041437 | 36 | 97 | 0.9 | 1.7 | 0.00 | 0.00 | 0.00 | 65 | 1016.2 |
| 20260503040937 | 36 | 84 | 0.9 | 1.7 | 0.00 | 0.00 | 0.00 | 65 | 1016.4 |
| 20260503040436 | 36 | 94 | 0.9 | 1.7 | 0.00 | 0.00 | 0.00 | 65 | 1016.5 |
| 20260503035940 | 36 | 89 | 0.9 | 1.7 | 0.00 | 0.00 | 0.00 | 65 | 1016.4 |
| 20260503035435 | 37 | 94 | 0.9 | 1.7 | 0.00 | 0.00 | 0.00 | 65 | 1016.3 |
| 20260503034936 | 37 | 97 | 0.9 | 1.7 | 0.00 | 0.00 | 0.00 | 64 | 1016.5 |
| 20260503034435 | 37 | 93 | 0.9 | 0.9 | 0.00 | 0.00 | 0.00 | 64 | 1016.6 |
| 20260503033936 | 37 | 96 | 0.9 | 0.9 | 0.00 | 0.00 | 0.00 | 64 | 1016.5 |
| 20260503033654 | 37 | 89 | 0.0 | 0.9 | 0.00 | 0.00 | 0.00 | 64 | 1016.3 |
| 20260503032937 | 37 | 89 | 0.0 | 0.9 | 0.00 | 0.00 | 0.00 | 63 | 1016.6 |
| 20260503032434 | 37 | 103 | 0.0 | 0.0 | 0.00 | 0.00 | 0.00 | 63 | 1016.7 |
| 20260503031936 | 38 | 103 | 0.0 | 0.0 | 0.00 | 0.00 | 0.00 | 63 | 1016.6 |
| 20260503031434 | 38 | 103 | 0.0 | 0.9 | 0.00 | 0.00 | 0.00 | 62 | 1016.5 |
| 20260503030935 | 38 | 113 | 0.0 | 1.7 | 0.00 | 0.00 | 0.00 | 62 | 1016.5 |
| 20260503030433 | 38 | 87 | 0.0 | 1.7 | 0.00 | 0.00 | 0.00 | 62 | 1016.7 |
| 20260503025942 | 38 | 100 | 0.9 | 1.7 | 0.00 | 0.00 | 0.00 | 62 | 1016.6 |
| 20260503025433 | 39 | 86 | 0.9 | 1.7 | 0.00 | 0.00 | 0.00 | 61 | 1016.9 |
| 20260503024934 | 39 | 78 | 0.9 | 1.7 | 0.00 | 0.00 | 0.00 | 61 | 1016.5 |
| 20260503024432 | 39 | 81 | 0.9 | 1.7 | 0.00 | 0.00 | 0.00 | 61 | 1016.7 |
| 20260503023934 | 39 | 97 | 0.9 | 1.7 | 0.00 | 0.00 | 0.00 | 60 | 1016.7 |
| 20260503023432 | 40 | 104 | 0.9 | 1.7 | 0.00 | 0.00 | 0.00 | 60 | 1016.6 |
| 20260503022945 | 40 | 89 | 0.9 | 1.7 | 0.00 | 0.00 | 0.00 | 60 | 1016.7 |
| 20260503022912 | 40 | 93 | 0.9 | 1.7 | 0.00 | 0.00 | 0.00 | 60 | 1016.6 |
| 20260503021933 | 40 | 86 | 0.9 | 1.7 | 0.00 | 0.00 | 0.00 | 59 | 1016.5 |
| 20260503021432 | 41 | 87 | 0.9 | 1.7 | 0.00 | 0.00 | 0.00 | 59 | 1016.4 |
| 20260503020933 | 41 | 105 | 0.0 | 1.7 | 0.00 | 0.00 | 0.00 | 59 | 1016.6 |
| 20260503020431 | 41 | 107 | 0.9 | 1.7 | 0.00 | 0.00 | 0.00 | 58 | 1016.5 |
| 20260503020200 | 41 | 92 | 0.9 | 1.7 | 0.00 | 0.00 | 0.00 | 58 | 1016.4 |
| 20260503015436 | 42 | 94 | 0.9 | 1.7 | 0.00 | 0.00 | 0.00 | 57 | 1016.4 |
| 20260503014934 | 42 | 97 | 0.9 | 1.7 | 0.00 | 0.00 | 0.00 | 57 | 1016.2 |
| 20260503014926 | 42 | 97 | 0.9 | 1.7 | 0.00 | 0.00 | 0.00 | 57 | 1016.6 |
| 20260503013931 | 43 | 104 | 0.9 | 1.7 | 0.00 | 0.00 | 0.00 | 56 | 1016.3 |
| 20260503013429 | 43 | 97 | 0.9 | 1.7 | 0.00 | 0.00 | 0.00 | 56 | 1016.4 |
| 20260503012931 | 43 | 96 | 0.9 | 1.7 | 0.00 | 0.00 | 0.00 | 56 | 1016.4 |
| 20260503012429 | 44 | 82 | 0.9 | 1.7 | 0.00 | 0.00 | 0.00 | 56 | 1016.3 |
| 20260503011936 | 44 | 89 | 0.0 | 1.7 | 0.00 | 0.00 | 0.00 | 56 | 1016.0 |
| 20260503011429 | 44 | 89 | 0.0 | 1.7 | 0.00 | 0.00 | 0.00 | 55 | 1016.3 |
| 20260503010929 | 44 | 94 | 0.9 | 1.7 | 0.00 | 0.00 | 0.00 | 55 | 1016.5 |
| 20260503010652 | 44 | 89 | 0.0 | 1.7 | 0.00 | 0.00 | 0.00 | 55 | 1016.2 |
| 20260503005929 | 44 | 89 | 0.9 | 1.7 | 0.00 | 0.00 | 0.00 | 54 | 1016.4 |
| 20260503005427 | 45 | 85 | 0.9 | 1.7 | 0.00 | 0.00 | 0.00 | 53 | 1016.3 |
| 20260503004940 | 45 | 88 | 0.9 | 1.7 | 0.00 | 0.00 | 0.00 | 53 | 1016.1 |
| 20260503004429 | 45 | 89 | 0.9 | 1.7 | 0.00 | 0.00 | 0.00 | 53 | 1016.2 |
| 20260503003929 | 46 | 97 | 0.9 | 1.7 | 0.00 | 0.00 | 0.00 | 52 | 1016.4 |
| 20260503003646 | 46 | 112 | 0.0 | 1.7 | 0.00 | 0.00 | 0.00 | 52 | 1016.1 |
| 20260503003147 | 46 | 89 | 0.9 | 1.7 | 0.00 | 0.00 | 0.00 | 52 | 1016.2 |
| 20260503002426 | 46 | 82 | 0.9 | 1.7 | 0.00 | 0.00 | 0.00 | 52 | 1016.3 |
| 20260503001928 | 47 | 108 | 0.9 | 1.7 | 0.00 | 0.00 | 0.00 | 52 | 1016.1 |
| 20260503001433 | 47 | 79 | 0.0 | 1.7 | 0.00 | 0.00 | 0.00 | 51 | 1016.1 |
| 20260503000927 | 47 | 87 | 0.9 | 2.6 | 0.00 | 0.00 | 0.00 | 51 | 1016.3 |
| 20260503000645 | 47 | 87 | 0.0 | 2.6 | 0.00 | 0.00 | 0.00 | 51 | 1016.3 |
| 20260503000150 | 47 | 30 | 0.0 | 1.7 | 0.00 | 0.00 | 0.00 | 51 | 1016.2 |
| 20260502235643 | 47 | 92 | 0.0 | 2.6 | 0.00 | 0.00 | 0.00 | 50 | 1016.3 |
| 20260502234925 | 47 | 116 | 0.9 | 2.6 | 0.00 | 0.00 | 0.00 | 50 | 1016.1 |
| 20260502234423 | 48 | 60 | 1.7 | 2.6 | 0.00 | 0.00 | 0.00 | 50 | 1016.1 |
| 20260502233930 | 48 | 218 | 0.9 | 1.7 | 0.00 | 0.00 | 0.00 | 51 | 1016.2 |
| 20260502233422 | 48 | 77 | 0.9 | 2.6 | 0.00 | 0.00 | 0.00 | 51 | 1016.4 |
| 20260502232923 | 48 | 77 | 0.9 | 2.6 | 0.00 | 0.00 | 0.00 | 51 | 1016.0 |
| 20260502232422 | 48 | 105 | 0.0 | 1.7 | 0.00 | 0.00 | 0.00 | 50 | 1015.9 |
| 20260502231923 | 48 | 72 | 0.9 | 2.6 | 0.00 | 0.00 | 0.00 | 50 | 1016.4 |
| 20260502231432 | 48 | 217 | 0.0 | 2.6 | 0.00 | 0.00 | 0.00 | 50 | 1016.4 |
| 20260502231153 | 48 | 153 | 1.7 | 2.6 | 0.00 | 0.00 | 0.00 | 50 | 1016.5 |
| 20260502230420 | 48 | 63 | 0.0 | 1.7 | 0.00 | 0.00 | 0.00 | 50 | 1016.4 |
| 20260502225922 | 48 | 99 | 1.7 | 1.7 | 0.00 | 0.00 | 0.00 | 50 | 1016.5 |
| 20260502225420 | 48 | 117 | 0.0 | 1.7 | 0.00 | 0.00 | 0.00 | 50 | 1016.4 |
| 20260502224921 | 48 | 80 | 0.9 | 2.6 | 0.00 | 0.00 | 0.00 | 50 | 1016.3 |
| 20260502224419 | 48 | 46 | 1.7 | 2.6 | 0.00 | 0.00 | 0.00 | 50 | 1016.1 |
| 20260502223920 | 48 | 47 | 1.7 | 2.6 | 0.00 | 0.00 | 0.00 | 50 | 1016.3 |
| 20260502223426 | 48 | 135 | 0.0 | 3.5 | 0.00 | 0.00 | 0.00 | 50 | 1016.4 |
| 20260502222921 | 48 | 108 | 0.9 | 3.5 | 0.00 | 0.00 | 0.00 | 50 | 1016.4 |
| 20260502222644 | 48 | 55 | 1.7 | 3.5 | 0.00 | 0.00 | 0.00 | 49 | 1016.5 |
| 20260502221919 | 49 | 47 | 1.7 | 3.5 | 0.00 | 0.00 | 0.00 | 49 | 1016.4 |
| 20260502221418 | 49 | 62 | 0.0 | 3.5 | 0.00 | 0.00 | 0.00 | 49 | 1016.5 |
| 20260502220919 | 49 | 151 | 0.0 | 3.5 | 0.00 | 0.00 | 0.00 | 50 | 1016.2 |
| 20260502220416 | 49 | 108 | 1.7 | 2.6 | 0.00 | 0.00 | 0.00 | 50 | 1016.5 |
| 20260502215929 | 48 | 59 | 1.7 | 2.6 | 0.00 | 0.00 | 0.00 | 50 | 1016.4 |
| 20260502215417 | 48 | 33 | 1.7 | 4.3 | 0.00 | 0.00 | 0.00 | 50 | 1016.3 |
| 20260502214943 | 49 | 51 | 2.6 | 4.3 | 0.00 | 0.00 | 0.00 | 50 | 1016.3 |
| 20260502214415 | 49 | 94 | 3.5 | 4.3 | 0.00 | 0.00 | 0.00 | 50 | 1016.1 |
| 20260502213916 | 49 | 56 | 0.9 | 2.6 | 0.00 | 0.00 | 0.00 | 49 | 1016.4 |
| 20260502213415 | 49 | 15 | 1.7 | 3.5 | 0.00 | 0.00 | 0.00 | 49 | 1016.4 |
| 20260502212916 | 49 | 88 | 1.7 | 3.5 | 0.00 | 0.00 | 0.00 | 49 | 1016.5 |
| 20260502212637 | 49 | 62 | 0.0 | 5.2 | 0.00 | 0.00 | 0.00 | 49 | 1016.4 |
| 20260502211915 | 49 | 51 | 1.7 | 5.2 | 0.00 | 0.00 | 0.00 | 49 | 1016.4 |
| 20260502211413 | 49 | 63 | 0.9 | 4.3 | 0.00 | 0.00 | 0.00 | 49 | 1016.3 |
| 20260502211354 | 49 | 103 | 0.9 | 2.6 | 0.00 | 0.00 | 0.00 | 49 | 1016.4 |
| 20260502210412 | 49 | 271 | 1.7 | 2.6 | 0.00 | 0.00 | 0.00 | 49 | 1016.6 |
| 20260502205909 | 49 | 227 | 0.0 | 2.6 | 0.00 | 0.00 | 0.00 | 49 | 1016.4 |
| 20260502205412 | 49 | 102 | 0.0 | 3.5 | 0.00 | 0.00 | 0.00 | 49 | 1016.4 |
| 20260502205128 | 49 | 50 | 1.7 | 3.5 | 0.00 | 0.00 | 0.00 | 49 | 1016.5 |
| 20260502204407 | 49 | 159 | 0.9 | 3.5 | 0.00 | 0.00 | 0.00 | 50 | 1016.6 |
| 20260502203910 | 49 | 86 | 1.7 | 3.5 | 0.00 | 0.00 | 0.00 | 51 | 1016.6 |
| 20260502203410 | 49 | 95 | 0.9 | 3.5 | 0.00 | 0.00 | 0.00 | 51 | 1016.6 |
| 20260502202907 | 49 | 116 | 0.9 | 3.5 | 0.00 | 0.00 | 0.00 | 50 | 1016.7 |
| 20260502202420 | 49 | 84 | 3.5 | 3.5 | 0.00 | 0.00 | 0.00 | 50 | 1017.0 |
| 20260502201908 | 49 | 29 | 0.9 | 2.6 | 0.00 | 0.00 | 0.00 | 50 | 1016.8 |
| 20260502201408 | 49 | 77 | 0.0 | 2.6 | 0.00 | 0.00 | 0.00 | 50 | 1016.9 |
| 20260502200907 | 50 | 109 | 0.9 | 3.5 | 0.00 | 0.00 | 0.00 | 49 | 1016.8 |
| 20260502200408 | 50 | 108 | 1.7 | 3.5 | 0.00 | 0.00 | 0.00 | 50 | 1017.1 |
| 20260502195907 | 50 | 29 | 2.6 | 3.5 | 0.00 | 0.00 | 0.00 | 50 | 1016.9 |
| 20260502195417 | 50 | 47 | 0.0 | 3.5 | 0.00 | 0.00 | 0.00 | 50 | 1017.0 |
| 20260502194906 | 49 | 43 | 1.7 | 3.5 | 0.00 | 0.00 | 0.00 | 50 | 1017.0 |
| 20260502194407 | 49 | 54 | 1.7 | 3.5 | 0.00 | 0.00 | 0.00 | 49 | 1017.2 |
| 20260502193905 | 49 | 322 | 0.9 | 3.5 | 0.00 | 0.00 | 0.00 | 49 | 1016.8 |
| 20260502193406 | 49 | 124 | 0.0 | 3.5 | 0.00 | 0.00 | 0.00 | 48 | 1017.4 |
| 20260502192905 | 49 | 124 | 0.0 | 3.5 | 0.00 | 0.00 | 0.00 | 50 | 1017.3 |
| 20260502192414 | 49 | 9 | 1.7 | 5.2 | 0.00 | 0.00 | 0.00 | 51 | 1017.5 |
| 20260502191903 | 49 | 29 | 1.7 | 5.2 | 0.00 | 0.00 | 0.00 | 51 | 1017.4 |
| 20260502191404 | 50 | 82 | 2.6 | 3.5 | 0.00 | 0.00 | 0.00 | 50 | 1017.3 |
| 20260502190902 | 50 | 23 | 1.7 | 3.5 | 0.00 | 0.00 | 0.00 | 52 | 1017.5 |
| 20260502190403 | 49 | 125 | 0.9 | 3.5 | 0.00 | 0.00 | 0.00 | 51 | 1017.3 |
| 20260502185902 | 49 | 55 | 0.9 | 4.3 | 0.00 | 0.00 | 0.00 | 52 | 1017.6 |
| 20260502185637 | 48 | 43 | 1.7 | 4.3 | 0.00 | 0.00 | 0.00 | 51 | 1017.4 |
| 20260502184900 | 48 | 50 | 1.7 | 3.5 | 0.00 | 0.00 | 0.00 | 51 | 1017.3 |
| 20260502184402 | 48 | 106 | 1.7 | 4.3 | 0.00 | 0.00 | 0.00 | 51 | 1017.6 |
| 20260502183859 | 48 | 65 | 0.0 | 4.3 | 0.00 | 0.00 | 0.00 | 51 | 1017.8 |
| 20260502183401 | 49 | 89 | 1.7 | 4.3 | 0.00 | 0.00 | 0.00 | 52 | 1017.9 |
| 20260502183123 | 49 | 80 | 2.6 | 4.3 | 0.00 | 0.00 | 0.00 | 52 | 1017.5 |
| 20260502182408 | 48 | 76 | 0.9 | 3.5 | 0.00 | 0.00 | 0.00 | 52 | 1017.6 |
| 20260502181858 | 48 | 55 | 0.0 | 3.5 | 0.00 | 0.00 | 0.00 | 51 | 1017.8 |
| 20260502181400 | 48 | 74 | 1.7 | 3.5 | 0.00 | 0.00 | 0.00 | 51 | 1017.9 |
| 20260502181346 | 49 | 29 | 0.0 | 4.3 | 0.00 | 0.00 | 0.00 | 52 | 1017.5 |
| 20260502180332 | 48 | 35 | 0.9 | 4.3 | 0.00 | 0.00 | 0.00 | 53 | 1018.0 |
| 20260502170336 | 47 | 29 | 0.0 | 3.5 | 0.00 | 0.00 | 0.00 | 54 | 1018.5 |
| 20260502164320 | 46 | 118 | 0.9 | 4.3 | 0.00 | 0.00 | 0.00 | 54 | 1018.3 |
| 20260502164047 | 46 | 107 | 0.9 | 4.3 | 0.00 | 0.00 | 0.00 | 54 | 1018.4 |
| 20260502163330 | 46 | 87 | 3.5 | 4.3 | 0.00 | 0.00 | 0.00 | 54 | 1018.6 |
| 20260502162824 | 47 | 97 | 0.9 | 7.0 | 0.00 | 0.00 | 0.00 | 55 | 1018.5 |
| 20260502162316 | 46 | 42 | 1.7 | 7.0 | 0.00 | 0.00 | 0.00 | 55 | 1018.4 |
| 20260502161817 | 46 | 62 | 1.7 | 5.2 | 0.00 | 0.00 | 0.00 | 56 | 1018.5 |
| 20260502161317 | 47 | 77 | 0.0 | 5.2 | 0.00 | 0.00 | 0.00 | 56 | 1018.7 |
| 20260502160817 | 46 | 122 | 0.0 | 5.2 | 0.00 | 0.00 | 0.00 | 57 | 1018.5 |
| 20260502160318 | 46 | 102 | 2.6 | 6.1 | 0.00 | 0.00 | 0.00 | 57 | 1018.5 |
| 20260502152317 | 44 | 46 | 0.0 | 5.2 | 0.00 | 0.00 | 0.00 | 59 | 1018.5 |
| 20260502151821 | 44 | 30 | 1.7 | 5.2 | 0.00 | 0.00 | 0.00 | 60 | 1018.1 |
| 20260502151317 | 44 | 89 | 1.7 | 4.3 | 0.00 | 0.00 | 0.00 | 60 | 1018.3 |
| 20260502150817 | 44 | 81 | 2.6 | 4.3 | 0.00 | 0.00 | 0.00 | 60 | 1018.6 |
| 20260502150316 | 44 | 52 | 0.0 | 4.3 | 0.00 | 0.00 | 0.00 | 60 | 1018.2 |
| 20260502130505 | 40 | 32 | 0.0 | 5.2 | 0.00 | 0.00 | 0.00 | 69 | 1018.2 |
| 20260502130225 | 39 | 111 | 2.6 | 5.2 | 0.00 | 0.00 | 0.00 | 69 | 1018.2 |
| 20260502123734 | 38 | 309 | 1.7 | 4.3 | 0.00 | 0.01 | 0.00 | 70 | 1018.3 |
| 20260502123450 | 37 | 87 | 2.6 | 4.3 | 0.00 | 0.01 | 0.00 | 70 | 1018.1 |
| 20260502122512 | 37 | 80 | 1.7 | 3.5 | 0.00 | 0.01 | 0.00 | 71 | 1018.1 |
| 20260502122448 | 37 | 62 | 0.9 | 5.2 | 0.00 | 0.01 | 0.00 | 71 | 1018.3 |
| 20260502121459 | 37 | 80 | 1.7 | 5.2 | 0.00 | 0.01 | 0.00 | 71 | 1018.1 |
| 20260502120958 | 36 | 68 | 3.5 | 4.3 | 0.00 | 0.01 | 0.00 | 71 | 1017.9 |
| 20260502120720 | 36 | 83 | 0.9 | 4.3 | 0.00 | 0.01 | 0.00 | 71 | 1017.9 |
| 20260502120447 | 36 | 52 | 0.0 | 2.6 | 0.00 | 0.01 | 0.00 | 71 | 1018.1 |
| 20260502115458 | 35 | 77 | 1.7 | 2.6 | 0.00 | 0.01 | 0.00 | 71 | 1017.9 |
| 20260502115002 | 35 | 66 | 0.0 | 2.6 | 0.00 | 0.01 | 0.00 | 71 | 1018.1 |
| 20260502114717 | 35 | 67 | 0.0 | 3.5 | 0.00 | 0.01 | 0.00 | 71 | 1017.6 |
| 20260502113955 | 35 | 74 | 0.0 | 3.5 | 0.00 | 0.02 | 0.00 | 71 | 1017.9 |
| 20260502113725 | 34 | 79 | 0.0 | 2.6 | 0.00 | 0.02 | 0.00 | 71 | 1017.8 |
| 20260502112955 | 34 | 69 | 0.0 | 1.7 | 0.00 | 0.02 | 0.00 | 71 | 1017.5 |
| 20260502112455 | 34 | 126 | 0.0 | 1.7 | 0.00 | 0.02 | 0.00 | 71 | 1018.0 |
| 20260502111954 | 34 | 69 | 0.9 | 1.7 | 0.00 | 0.02 | 0.00 | 71 | 1017.8 |
| 20260502111501 | 34 | 73 | 0.9 | 1.7 | 0.00 | 0.02 | 0.00 | 71 | 1017.6 |
| 20260502110954 | 34 | 85 | 0.9 | 1.7 | 0.00 | 0.02 | 0.00 | 70 | 1017.8 |
| 20260502110509 | 34 | 81 | 0.9 | 1.7 | 0.00 | 0.02 | 0.00 | 70 | 1017.6 |
| 20260502105953 | 34 | 84 | 0.9 | 1.7 | 0.00 | 0.02 | 0.00 | 70 | 1017.5 |
| 20260502105454 | 34 | 100 | 0.9 | 1.7 | 0.00 | 0.02 | 0.00 | 70 | 1017.8 |
| 20260502104952 | 34 | 67 | 0.0 | 1.7 | 0.00 | 0.03 | 0.00 | 70 | 1017.4 |
| 20260502104505 | 34 | 89 | 0.9 | 1.7 | 0.00 | 0.03 | 0.00 | 70 | 1017.4 |
| 20260502103955 | 34 | 117 | 0.0 | 1.7 | 0.00 | 0.03 | 0.00 | 69 | 1017.1 |
| 20260502103453 | 34 | 135 | 0.0 | 1.7 | 0.00 | 0.03 | 0.00 | 69 | 1017.2 |
| 20260502102952 | 34 | 84 | 0.9 | 1.7 | 0.00 | 0.04 | 0.00 | 69 | 1017.3 |
| 20260502102453 | 34 | 129 | 0.0 | 1.7 | 0.00 | 0.04 | 0.00 | 69 | 1017.3 |
| 20260502102223 | 34 | 63 | 0.0 | 2.6 | 0.00 | 0.04 | 0.00 | 69 | 1016.9 |
| 20260502101452 | 35 | 107 | 0.0 | 2.6 | 0.00 | 0.05 | 0.00 | 69 | 1017.3 |
| 20260502101003 | 35 | 84 | 0.9 | 2.6 | 0.00 | 0.05 | 0.00 | 69 | 1017.3 |
| 20260502100715 | 35 | 80 | 1.7 | 2.6 | 0.00 | 0.06 | 0.00 | 69 | 1017.4 |
| 20260502091449 | 37 | 89 | 0.0 | 1.7 | 0.00 | 0.08 | 0.00 | 67 | 1017.0 |
| 20260502091218 | 37 | 79 | 0.9 | 1.7 | 0.00 | 0.08 | 0.00 | 67 | 1017.0 |
| 20260502090451 | 37 | 70 | 0.9 | 2.6 | 0.00 | 0.08 | 0.00 | 67 | 1017.3 |
| 20260502070940 | 40 | 85 | 1.7 | 3.5 | 0.00 | 0.11 | 0.00 | 68 | 1016.4 |
| 20260502070442 | 40 | 107 | 0.0 | 3.5 | 0.00 | 0.11 | 0.00 | 68 | 1016.6 |
| 20260502065947 | 40 | 69 | 1.7 | 4.3 | 0.00 | 0.11 | 0.00 | 68 | 1016.6 |
| 20260502065447 | 40 | 72 | 1.7 | 4.3 | 0.00 | 0.11 | 0.00 | 68 | 1016.4 |
| 20260502064940 | 40 | 128 | 0.0 | 4.3 | 0.00 | 0.12 | 0.00 | 68 | 1016.6 |
| 20260502064453 | 40 | 56 | 0.9 | 3.5 | 0.00 | 0.13 | 0.00 | 68 | 1016.7 |
| 20260502063939 | 40 | 99 | 1.7 | 2.6 | 0.00 | 0.13 | 0.00 | 69 | 1016.5 |
| 20260502063440 | 40 | 72 | 0.9 | 2.6 | 0.00 | 0.13 | 0.00 | 69 | 1016.6 |
| 20260502062938 | 40 | 182 | 1.7 | 2.6 | 0.00 | 0.14 | 0.00 | 69 | 1016.5 |
| 20260502062703 | 40 | 95 | 0.9 | 1.7 | 0.00 | 0.14 | 0.00 | 69 | 1016.5 |
| 20260502061938 | 40 | 83 | 0.9 | 1.7 | 0.00 | 0.15 | 0.00 | 69 | 1016.6 |
| 20260502061439 | 40 | 77 | 1.7 | 1.7 | 0.00 | 0.16 | 0.00 | 69 | 1016.8 |
| 20260502060938 | 40 | 105 | 0.9 | 1.7 | 0.00 | 0.17 | 0.00 | 69 | 1016.7 |
| 20260502060439 | 40 | 89 | 0.0 | 1.7 | 0.00 | 0.17 | 0.00 | 69 | 1016.7 |
| 20260502055949 | 40 | 77 | 0.9 | 1.7 | 0.00 | 0.17 | 0.00 | 69 | 1016.7 |
| 20260502055451 | 40 | 101 | 0.0 | 1.7 | 0.00 | 0.17 | 0.00 | 69 | 1016.9 |
| 20260502054937 | 40 | 51 | 0.0 | 1.7 | 0.00 | 0.17 | 0.00 | 69 | 1016.9 |
| 20260502054438 | 40 | 76 | 0.0 | 1.7 | 0.00 | 0.17 | 0.00 | 69 | 1017.1 |
| 20260502053937 | 40 | 107 | 0.0 | 1.7 | 0.00 | 0.17 | 0.00 | 69 | 1016.9 |
| 20260502053438 | 40 | 65 | 0.9 | 1.7 | 0.00 | 0.19 | 0.00 | 69 | 1016.7 |
| 20260502052947 | 40 | 103 | 0.0 | 1.7 | 0.00 | 0.20 | 0.00 | 69 | 1016.9 |
| 20260502052657 | 40 | 124 | 0.0 | 1.7 | 0.00 | 0.20 | 0.00 | 69 | 1017.2 |
| 20260502051936 | 40 | 84 | 0.0 | 1.7 | 0.00 | 0.21 | 0.00 | 69 | 1017.1 |
| 20260502051437 | 40 | 107 | 0.9 | 1.7 | 0.00 | 0.22 | 0.00 | 69 | 1017.0 |
| 20260502050935 | 40 | 99 | 0.9 | 2.6 | 0.00 | 0.24 | 0.00 | 69 | 1016.8 |
| 20260502050657 | 40 | 76 | 0.9 | 2.6 | 0.00 | 0.26 | 0.00 | 69 | 1016.8 |